This is the latest recevied weather packets stored in our database for station/object LU8FCJ-5. If no packets are shown the sender has not sent any weather packets the latest 10 day(s).
| Time | Temp. | Humidity | Pressure | Rain* | Wind** | Luminosity | Snow |
|---|---|---|---|---|---|---|---|
| 1778254216 | 12.78° C | 40% | 1009.1 hPa | 0 mm | - | - | - |
| 1778253908 | 12.78° C | 41% | 1009 hPa | 0 mm | - | - | - |
| 1778253596 | 12.22° C | 42% | 1009.1 hPa | 0 mm | - | - | - |
| 1778253286 | 12.78° C | 42% | 1009.2 hPa | 0 mm | - | - | - |
| 1778252976 | 12.22° C | 42% | 1009.2 hPa | 0 mm | - | - | - |
| 1778252666 | 12.22° C | 42% | 1009.2 hPa | 0 mm | - | - | - |
| 1778252356 | 11.67° C | 43% | 1009.1 hPa | 0 mm | - | - | - |
| 1778252046 | 11.67° C | 44% | 1009.5 hPa | 0 mm | - | - | - |
| 1778251736 | 11.67° C | 43% | 1009.4 hPa | 0 mm | - | - | - |
| 1778251426 | 12.22° C | 43% | 1009.3 hPa | 0 mm | - | - | - |
| 1778251115 | 11.67° C | 45% | 1009.4 hPa | 0 mm | - | - | - |
| 1778250804 | 11.67° C | 45% | 1009.6 hPa | 0 mm | - | - | - |
| 1778250495 | 11.67° C | 46% | 1009.8 hPa | 0 mm | - | - | - |
| 1778250185 | 11.11° C | 46% | 1009.4 hPa | 0 mm | - | - | - |
| 1778249875 | 11.11° C | 46% | 1009.7 hPa | 0 mm | - | - | - |
| 1778249568 | 10.56° C | 47% | 1009.6 hPa | 0 mm | - | - | - |
| 1778249258 | 10.56° C | 47% | 1009.7 hPa | 0 mm | - | - | - |
| 1778248947 | 10.56° C | 47% | 1009.8 hPa | 0 mm | - | - | - |
| 1778248638 | 10.56° C | 46% | 1009.9 hPa | 0 mm | - | - | - |
| 1778248328 | 10.56° C | 47% | 1009.9 hPa | 0 mm | - | - | - |
| 1778248017 | 10° C | 47% | 1010 hPa | 0 mm | - | - | - |
| 1778247707 | 10° C | 47% | 1009.7 hPa | 0 mm | - | - | - |
| 1778247397 | 10° C | 47% | 1010 hPa | 0 mm | - | - | - |
| 1778247087 | 10° C | 47% | 1010.1 hPa | 0 mm | - | - | - |
| 1778246778 | 10° C | 47% | 1009.9 hPa | 0 mm | - | - | - |
* Rain latest hour (hover to see other rain measurements)
** Current wind speed in m/s (hover to see current wind gust speed)